User: anonymous   Login
Location: Ward Pound Ridge Reservation
(41.2500°N, 73.6000°W)
Time: 03:16:51
(UTC-05:00)
Language:

Tiangong 2 - Orbit

View from above orbital plane
View from above orbital plane
View from above satellite
View from above satellite

Ground track
Ground track

The orbit data is extracted from the following two-line orbital elements,

1 41765U 16057A   17345.83098380  .00003841  00000-0  51173-4 0  9998
2 41765  42.7849  19.1633 0002907   6.8191 345.6122 15.59789413 70704
Epoch (UTC): 11 December 2017 19:56:37
Eccentricity: 0.0002907
inclination: 42.7849°
perigee height: 386 km
apogee height: 390 km
right ascension of ascending node: 19.1633°
argument of perigee: 6.8191°
revolutions per day: 15.59789413
mean anomaly at epoch: 345.6122°
orbit number at epoch: 7070

The dashed part of the orbit path shows where the satellite is in the earth's shadow,  

DLR